FW8756 Weather Reports


time (UTC)temp
F
wind
direction
speed
knots
gust
knots
rain 1hr
in
rain 24hr
in
rain mn
in
humidity
%
barometer
mb
20260502152028 68 130 1.7 1.7 0.00 0.00 0.00 71 1020.0
20260502151525 67 94 0.9 1.7 0.00 0.00 0.00 73 1020.0
20260502151022 67 150 0.9 1.7 0.00 0.00 0.00 73 1019.9
20260502150520 66 2 1.7 2.6 0.00 0.00 0.00 74 1019.9
20260502130404 55 162 0.0 0.0 0.00 0.00 0.00 93 1019.0
20260502123347 52 162 0.0 0.0 0.00 0.00 0.00 94 1018.3
20260502122844 52 149 0.0 0.0 0.00 0.00 0.00 94 1018.2
20260502122340 52 147 0.0 0.0 0.00 0.00 0.00 94 1017.9
20260502121839 52 107 0.0 0.0 0.00 0.00 0.00 94 1018.0
20260502121336 51 157 0.0 0.0 0.00 0.00 0.00 94 1018.0
20260502120833 51 156 0.0 0.0 0.00 0.00 0.00 94 1018.0
20260502120329 51 154 0.0 0.0 0.00 0.00 0.00 94 1018.1
20260502115827 51 159 0.0 0.0 0.00 0.00 0.00 94 1018.2
20260502115324 51 150 0.0 0.0 0.00 0.00 0.00 94 1018.1
20260502114820 51 149 0.0 0.0 0.00 0.00 0.00 94 1018.0
20260502114317 51 150 0.0 0.0 0.00 0.00 0.00 94 1017.9
20260502113814 51 92 0.0 0.9 0.00 0.00 0.00 94 1017.7
20260502113311 51 81 0.0 0.0 0.00 0.00 0.00 94 1017.8
20260502112810 51 151 0.0 0.0 0.00 0.00 0.00 94 1017.8
20260502112306 51 115 0.9 0.9 0.00 0.00 0.00 94 1017.5
20260502111804 51 93 0.0 0.0 0.00 0.00 0.00 94 1017.3
20260502111301 51 157 0.0 0.0 0.00 0.00 0.00 94 1017.3
20260502110759 51 158 0.0 0.0 0.00 0.00 0.00 94 1017.1
20260502110256 51 143 0.0 0.0 0.00 0.00 0.00 94 1017.3
20260502105754 51 164 0.0 0.0 0.00 0.00 0.00 94 1017.0
20260502105250 51 154 0.0 0.0 0.00 0.00 0.00 94 1017.0
20260502104748 51 176 0.0 0.0 0.00 0.00 0.00 94 1017.1
20260502104245 51 147 0.0 0.0 0.00 0.00 0.00 94 1017.0
20260502103743 51 179 0.0 0.0 0.00 0.00 0.00 94 1017.1
20260502103240 51 124 0.0 0.0 0.00 0.00 0.00 94 1017.1
20260502102738 51 188 0.0 0.0 0.00 0.00 0.00 94 1016.8
20260502102233 51 156 0.0 0.9 0.00 0.00 0.00 94 1016.9
20260502101732 51 159 0.0 0.9 0.00 0.00 0.00 94 1016.8
20260502101230 51 169 0.9 0.9 0.00 0.00 0.00 94 1016.8
20260502100727 51 147 0.9 0.9 0.00 0.00 0.00 94 1016.7
20260502100226 51 147 0.0 0.9 0.00 0.00 0.00 94 1016.9
20260502091200 51 147 0.0 0.0 0.00 0.00 0.00 94 1016.2
20260502090657 51 127 0.0 0.0 0.00 0.00 0.00 93 1016.0
20260502090154 51 128 0.0 0.0 0.00 0.00 0.00 93 1016.0
20260502071055 53 150 0.9 0.9 0.00 0.00 0.00 92 1015.4
20260502070553 53 171 0.0 0.9 0.00 0.00 0.00 92 1015.4
20260502070051 53 147 0.0 0.0 0.00 0.00 0.00 92 1015.2
20260502065549 53 170 0.9 0.9 0.00 0.00 0.00 92 1015.5
20260502065047 53 359 0.0 0.9 0.00 0.00 0.00 92 1015.5
20260502064545 53 135 0.9 1.7 0.00 0.00 0.00 92 1015.5
20260502064042 53 151 0.0 0.0 0.00 0.00 0.00 92 1015.7
20260502063539 53 94 0.0 0.0 0.00 0.00 0.00 91 1015.6
20260502063037 53 140 0.0 0.9 0.00 0.00 0.00 91 1015.7
20260502062534 54 146 0.9 0.9 0.00 0.00 0.00 91 1015.6
20260502062032 54 133 0.0 0.9 0.00 0.00 0.00 91 1015.8
20260502061530 54 155 0.9 0.9 0.00 0.00 0.00 91 1015.8
20260502061027 54 198 0.9 0.9 0.00 0.00 0.00 91 1015.7
20260502060522 54 154 0.9 0.9 0.00 0.00 0.00 91 1015.4
20260502060019 54 58 0.9 1.7 0.00 0.00 0.00 91 1015.5
20260502055516 54 345 0.9 1.7 0.00 0.00 0.00 91 1015.5
20260502055015 54 133 0.0 0.9 0.00 0.00 0.00 91 1015.4
20260502054513 54 42 2.6 4.3 0.00 0.00 0.00 91 1015.4
20260502054010 54 169 1.7 1.7 0.00 0.00 0.00 91 1015.5
20260502053507 54 189 1.7 1.7 0.00 0.00 0.00 91 1015.5
20260502053005 54 347 0.9 0.9 0.00 0.00 0.00 92 1015.5
20260502052503 54 9 0.9 1.7 0.00 0.00 0.00 92 1015.7
20260502052001 54 34 0.9 1.7 0.00 0.00 0.00 92 1015.6
20260502051459 54 7 1.7 2.6 0.00 0.00 0.00 92 1015.5
20260502050955 53 19 1.7 1.7 0.00 0.00 0.00 92 1015.6
20260502050452 53 58 1.7 2.6 0.00 0.00 0.00 92 1015.5
20260502045949 53 36 4.3 7.8 0.00 0.00 0.00 93 1015.4
20260502045446 53 187 2.6 2.6 0.00 0.00 0.00 93 1015.4
20260502044943 53 199 1.7 2.6 0.00 0.00 0.00 93 1015.5
20260502044438 54 64 2.6 4.3 0.00 0.00 0.00 93 1015.3
20260502043936 54 341 1.7 2.6 0.00 0.00 0.00 94 1015.7
20260502043433 54 189 2.6 2.6 0.00 0.00 0.00 94 1015.3
20260502042933 54 177 3.5 4.3 0.00 0.00 0.00 94 1015.3
20260502042430 54 123 1.7 2.6 0.00 0.00 0.00 94 1015.5
20260502041927 55 247 0.9 1.7 0.00 0.00 0.00 94 1015.7
20260502041425 55 33 0.9 1.7 0.00 0.00 0.00 94 1015.6
20260502040922 55 233 1.7 1.7 0.00 0.00 0.00 94 1015.6
20260502040418 55 26 3.5 7.0 0.00 0.00 0.00 94 1015.5
20260502035914 55 51 1.7 1.7 0.00 0.00 0.00 95 1015.3
20260502035411 55 13 1.7 4.3 0.00 0.00 0.00 95 1015.2
20260502034909 55 167 0.9 1.7 0.00 0.00 0.00 95 1015.3
20260502034408 55 200 0.9 1.7 0.00 0.00 0.00 95 1015.5
20260502033905 55 7 0.9 1.7 0.00 0.00 0.00 95 1015.4
20260502033403 54 141 0.9 0.9 0.00 0.00 0.00 95 1015.0
20260502032859 55 139 0.9 0.9 0.00 0.00 0.00 95 1015.3
20260502032355 54 358 2.6 2.6 0.00 0.00 0.00 95 1015.2
20260502031853 55 230 0.9 1.7 0.00 0.00 0.00 95 1015.3
20260502031351 55 180 0.9 0.9 0.00 0.00 0.00 95 1015.0
20260502030849 55 182 0.9 1.7 0.00 0.00 0.00 95 1014.9
20260502030347 55 197 0.9 0.9 0.00 0.00 0.00 95 1014.9
20260502025844 55 160 2.6 4.3 0.00 0.00 0.00 95 1014.6
20260502025341 55 65 0.9 2.6 0.00 0.00 0.00 95 1014.2
20260502024839 55 199 0.9 1.7 0.00 0.00 0.00 95 1014.2
20260502024337 55 26 1.7 1.7 0.00 0.00 0.00 95 1014.1
20260502023835 55 174 2.6 2.6 0.00 0.00 0.00 95 1014.0
20260502023332 55 193 0.9 1.7 0.00 0.00 0.00 95 1013.7
20260502022830 55 285 0.0 0.9 0.00 0.00 0.00 95 1013.6
20260502022326 55 138 1.7 1.7 0.00 0.00 0.00 95 1013.7
20260502021823 55 46 0.0 0.0 0.00 0.00 0.00 95 1013.8
20260502021320 55 20 0.0 2.6 0.00 0.00 0.00 95 1013.5
20260502020817 55 111 0.0 0.0 0.00 0.00 0.00 95 1013.8
20260502020315 55 182 0.9 1.7 0.00 0.00 0.00 95 1014.0
20260502015812 55 50 0.0 0.9 0.00 0.00 0.00 95 1014.0
20260502015308 55 33 2.6 4.3 0.00 0.00 0.00 95 1013.9
20260502014806 55 212 1.7 1.7 0.00 0.00 0.00 95 1013.6
20260502014303 55 286 1.7 1.7 0.00 0.00 0.00 95 1013.5
20260502013759 55 180 2.6 2.6 0.00 0.00 0.00 95 1013.2
20260502013255 55 93 0.0 0.0 0.00 0.00 0.00 95 1013.4
20260502012751 55 165 0.0 0.9 0.00 0.00 0.00 95 1013.4
20260502012249 55 146 0.9 0.9 0.00 0.00 0.00 95 1013.4
20260502011746 55 67 0.0 0.0 0.00 0.00 0.00 95 1013.3
20260502011242 55 0 3.5 5.2 0.00 0.00 0.00 95 1013.1
20260502010740 55 261 1.7 2.6 0.00 0.00 0.00 95 1013.0
20260502010236 55 124 0.0 0.9 0.00 0.00 0.00 95 1012.8
20260502005733 55 28 0.9 2.6 0.00 0.00 0.00 95 1012.7
20260502005231 55 356 0.9 2.6 0.00 0.00 0.00 95 1012.6
20260502004727 56 220 2.6 2.6 0.00 0.00 0.00 95 1012.8
20260502004224 56 45 0.0 0.0 0.00 0.00 0.00 95 1013.2
20260502003722 56 111 0.0 0.9 0.00 0.00 0.00 95 1013.3
20260502003219 56 24 1.7 2.6 0.00 0.00 0.00 95 1013.4
20260502002714 56 97 1.7 2.6 0.00 0.00 0.00 95 1013.2
20260502002213 56 155 0.0 0.0 0.00 0.00 0.00 95 1013.0
20260502001709 56 219 0.9 1.7 0.00 0.00 0.00 95 1012.6
20260502001208 56 2 2.6 5.2 0.00 0.00 0.00 95 1012.6
20260502000704 56 27 0.9 0.9 0.00 0.00 0.00 95 1012.6
20260502000203 57 151 2.6 7.0 0.00 0.00 0.00 95 1012.6
20260501235658 57 179 0.9 1.7 0.00 0.00 0.00 95 1012.1
20260501235154 57 25 2.6 2.6 0.00 0.00 0.00 95 1012.0
20260501234650 57 123 0.9 0.9 0.00 0.00 0.00 95 1011.9
20260501234147 57 155 0.0 0.9 0.00 0.00 0.00 95 1012.3
20260501233645 57 329 1.7 2.6 0.00 0.00 0.00 94 1012.1
20260501233142 57 347 1.7 2.6 0.00 0.00 0.00 94 1012.0
20260501232638 57 15 1.7 5.2 0.00 0.00 0.00 94 1011.3
20260501232136 57 163 0.0 0.0 0.00 0.00 0.00 94 1010.7
20260501231633 57 317 1.7 2.6 0.00 0.00 0.00 94 1010.0
20260501231131 58 246 2.6 2.6 0.00 0.00 0.00 95 1010.5
20260501230630 58 11 2.6 2.6 0.00 0.00 0.00 95 1010.9
20260501230127 58 22 1.7 1.7 0.00 0.00 0.00 95 1010.8
20260501225625 58 183 1.7 1.7 0.00 0.00 0.00 95 1011.1
20260501225121 58 233 0.9 0.9 0.00 0.00 0.00 95 1010.8
20260501224618 58 124 0.9 1.7 0.00 0.00 0.00 95 1010.0
20260501224115 58 71 1.7 2.6 0.00 0.00 0.00 95 1009.7
20260501223611 58 101 2.6 4.3 0.00 0.00 0.00 95 1009.1
20260501223108 59 302 2.6 4.3 0.00 0.00 0.00 95 1008.9
20260501222604 59 40 1.7 2.6 0.00 0.00 0.00 95 1009.5
20260501222101 59 307 0.9 2.6 0.00 0.00 0.00 95 1009.7
20260501221558 59 21 1.7 2.6 0.00 0.00 0.00 95 1010.2
20260501221055 59 255 1.7 2.6 0.00 0.00 0.00 94 1009.8
20260501220553 58 21 2.6 2.6 0.00 0.00 0.00 94 1009.9
20260501220050 59 69 1.7 5.2 0.00 0.00 0.00 94 1010.6
20260501215546 59 16 1.7 1.7 0.00 0.00 0.00 94 1011.3
20260501215041 59 149 1.7 2.6 0.00 0.00 0.00 94 1011.4
20260501214537 59 45 0.0 0.9 0.00 0.00 0.00 95 1011.2
20260501214033 59 229 1.7 4.3 0.00 0.00 0.00 94 1011.1
20260501213530 59 80 1.7 2.6 0.00 0.00 0.00 94 1010.6
20260501213026 59 49 0.9 1.7 0.00 0.00 0.00 95 1010.7
20260501212522 59 158 0.9 1.7 0.00 0.00 0.00 95 1011.5
20260501212020 59 179 1.7 2.6 0.00 0.00 0.00 94 1011.0
20260501211516 59 192 1.7 2.6 0.00 0.00 0.00 95 1010.7
20260501211015 59 197 2.6 2.6 0.00 0.00 0.00 94 1010.2
20260501210510 59 352 1.7 2.6 0.00 0.00 0.00 95 1009.6
20260501210007 60 146 2.6 4.3 0.00 0.00 0.00 95 1009.3
20260501205504 60 335 1.7 2.6 0.00 0.00 0.00 94 1009.4
20260501205001 60 207 0.9 2.6 0.00 0.00 0.00 94 1010.5
20260501204457 60 182 0.9 0.9 0.00 0.00 0.00 95 1010.1
20260501203954 60 338 1.7 2.6 0.00 0.00 0.00 94 1009.5
20260501203450 60 54 1.7 1.7 0.00 0.00 0.00 94 1009.4
20260501202948 60 54 1.7 2.6 0.00 0.00 0.00 94 1009.7
20260501202444 60 147 0.0 0.9 0.00 0.00 0.00 94 1010.1
20260501201940 60 122 0.9 0.9 0.00 0.00 0.00 94 1010.2
20260501201438 60 133 1.7 1.7 0.00 0.00 0.00 94 1010.1
20260501200935 60 101 1.7 2.6 0.00 0.00 0.00 94 1010.3
20260501200432 60 143 0.9 1.7 0.00 0.00 0.00 94 1010.3
20260501195929 60 129 0.0 0.9 0.00 0.00 0.00 94 1010.7
20260501195426 60 148 0.9 0.9 0.00 0.00 0.00 94 1010.4
20260501194921 60 73 0.9 1.7 0.00 0.00 0.00 94 1010.4
20260501194417 60 199 1.7 1.7 0.00 0.00 0.00 94 1010.1
20260501193914 60 141 2.6 6.1 0.00 0.00 0.00 94 1010.2
20260501193412 61 128 1.7 2.6 0.00 0.00 0.00 94 1010.4
20260501192909 61 125 0.0 0.9 0.00 0.00 0.00 94 1010.2
20260501192406 61 36 0.9 0.9 0.00 0.00 0.00 94 1010.1
20260501191904 61 177 2.6 4.3 0.00 0.00 0.00 95 1009.5
20260501191401 61 30 1.7 5.2 0.00 0.00 0.00 95 1009.4
20260501190858 60 105 4.3 6.1 0.00 0.00 0.00 95 1009.1
20260501190353 60 359 3.5 5.2 0.00 0.00 0.00 95 1009.1
20260501185848 60 130 3.5 5.2 0.00 0.00 0.00 95 1009.3
20260501185345 60 116 7.8 11.3 0.00 0.00 0.00 95 1009.2
20260501184841 60 46 1.7 2.6 0.00 0.00 0.00 95 1008.7
20260501184337 60 70 0.9 1.7 0.00 0.00 0.00 95 1008.6
20260501183832 60 110 2.6 2.6 0.00 0.00 0.00 95 1008.2
20260501183330 60 63 2.6 6.1 0.00 0.00 0.00 95 1007.9
20260501182826 61 82 2.6 4.3 0.00 0.00 0.00 95 1007.9
20260501182323 61 42 3.5 7.0 0.00 0.00 0.00 95 1007.7
20260501181820 60 58 2.6 5.2 0.00 0.00 0.00 95 1007.3
20260501181317 60 68 2.6 4.3 0.00 0.00 0.00 95 1007.2
20260501180814 60 151 4.3 7.8 0.00 0.00 0.00 95 1007.5
20260501180310 60 146 0.0 0.9 0.00 0.00 0.00 95 1007.8
20260501175808 60 143 1.7 2.6 0.00 0.00 0.00 95 1008.6
20260501175306 61 27 0.0 0.0 0.00 0.00 0.00 95 1009.3
20260501174801 61 357 0.0 0.9 0.00 0.00 0.00 95 1009.7
20260501174258 61 51 0.9 2.6 0.00 0.00 0.00 95 1010.2
20260501173756 61 152 0.0 0.0 0.00 0.00 0.00 95 1010.4
20260501173253 61 8 1.7 4.3 0.00 0.00 0.00 95 1010.7
20260501172749 61 202 1.7 1.7 0.00 0.00 0.00 95 1010.6
20260501172244 61 192 0.0 0.9 0.00 0.00 0.00 95 1010.3
20260501171740 61 288 0.9 1.7 0.00 0.00 0.00 95 1010.3
20260501171237 61 260 0.9 2.6 0.00 0.00 0.00 95 1010.3
20260501170734 61 13 0.0 0.9 0.00 0.00 0.00 95 1010.7
20260501170231 61 188 0.0 0.9 0.00 0.00 0.00 95 1010.7
20260501165728 61 37 0.9 1.7 0.00 0.00 0.00 95 1010.8
20260501165226 61 63 0.9 1.7 0.00 0.00 0.00 95 1010.6
20260501164724 61 310 3.5 6.1 0.00 0.00 0.00 95 1010.9
20260501164220 61 125 0.0 0.9 0.00 0.00 0.00 95 1011.0
20260501163717 61 77 0.0 0.9 0.00 0.00 0.00 95 1011.5
20260501163214 61 171 0.0 0.0 0.00 0.00 0.00 95 1012.2
20260501162710 61 113 0.0 0.0 0.00 0.00 0.00 96 1012.5
20260501162206 61 187 0.0 0.0 0.00 0.00 0.00 96 1013.2
20260501161704 61 138 0.0 1.7 0.00 0.00 0.00 96 1013.1
20260501161201 61 166 0.0 0.9 0.00 0.00 0.00 96 1013.2
20260501160657 60 140 0.0 0.0 0.00 0.00 0.00 96 1013.4
20260501160155 61 43 0.9 2.6 0.00 0.00 0.00 96 1013.4
20260501155651 61 153 0.0 0.0 0.00 0.00 0.00 96 1013.2
20260501155148 60 162 0.0 0.0 0.00 0.00 0.00 96 1012.9
20260501154645 60 153 0.0 0.9 0.00 0.00 0.00 96 1013.1
20260501154143 60 182 0.0 0.9 0.00 0.00 0.00 96 1012.7